Location: Molveno
(46.1500°N, 10.9667°E)
Time: 01:26:56
(UTC+00:00)

USA 81 - Pass Details

Date: 05 July 2020
Orbit: 786 x 788 km, 85.0° (Epoch: 17 July)

Event Time Altitude Azimuth Distance (km) Brightness Sun altitude
Exits shadow 21:19:52 13° 198° (SSW) 2,153 5.9 -15.9°
Maximum altitude 21:24:34 61° 278° (W) 890 4.5 -16.3°
Drops below altitude 10° 21:29:48 10° 359° (N) 2,357 7.5 -16.7°
Sets 21:32:13 0° 3° (N) 3,290 8.4 -16.9°
